Zurück zum Katalog

AMOS 2

AktivKommunikationGEO
NORAD 28132·PAYLOAD·🇮🇱 Israel

Gestartet Dec 27, 2003 von Baikonur Cosmodrome

Loading…

TLE

AktuellSource: Space-Track

Epoche: Sep 14, 2026, 10:00 UTC

1 28132U 03059A   26257.41730446 -.00000143  00000-0  00000-0 0  9993
2 28132   8.7333  61.9621 0003973 140.0348 224.7757  0.99394814 82932

Verfolge AMOS 2 in Echtzeit mit AllMySat

Download on the App Store